nws-alerts: Checking more than four warning/county codes can delay the loading of your pages. You should use a cron job to get the data.
EllijayWeather Station Historical Data
Daily Summary for February 11, 2019 Units:  Metric    English   Both
Daily Weekly Monthly Yearly Custom
  High: Low: Average:
Temperature: 13.3 °C 5.4 °C 9.4 °C
Dew Point: 13.3 °C 5 °C 9.2 °C
Humidity: 100% 97% 99%
Wind Speed: 1.4km/h 0km/h 0km/h
Wind Gust: 11.3km/h - -
Wind- - SSE
Pressure: 1027.7 hPa 1017.2 hPa -
Precipitation: 12.45 mm    
Historical Graphs
 
 
Tabular Data for February 11, 2019
Time Temperature Dew Point Pressure Wind Wind Speed Wind Gust Humidity Rainfall Rate (Hourly) solar
00:04 5.4 °C 5 °C 1027.7 hPa Calm     97% 1.78 mm meteobridge W/m2
00:09 5.4 °C 5.1 °C 1027.7 hPa Calm     98% 2.03 mm meteobridge W/m2
00:14 5.5 °C 5.2 °C 1027.3 hPa Calm     98% 1.78 mm meteobridge W/m2
00:19 5.5 °C 5.2 °C 1027.3 hPa Calm     98% 2.03 mm meteobridge W/m2
00:24 5.6 °C 5.3 °C 1027 hPa Calm     98% 2.03 mm meteobridge W/m2
00:29 5.6 °C 5.3 °C 1027.3 hPa Calm     98% 2.03 mm meteobridge W/m2
00:34 5.6 °C 5.2 °C 1027 hPa Calm   1.6 km/h 97% 1.78 mm meteobridge W/m2
00:39 5.6 °C 5.3 °C 1027 hPa Calm     98% 2.03 mm meteobridge W/m2
00:44 5.6 °C 5.3 °C 1027 hPa Calm     98% 1.78 mm meteobridge W/m2
00:49 5.6 °C 5.3 °C 1027 hPa Calm   3.2 km/h 98% 1.52 mm meteobridge W/m2
00:54 5.7 °C 5.4 °C 1027 hPa Calm     98% 1.27 mm meteobridge W/m2
00:59 5.7 °C 5.4 °C 1027 hPa Calm     98% 1.02 mm meteobridge W/m2
01:04 5.7 °C 5.4 °C 1027 hPa Calm     98% 0.76 mm meteobridge W/m2
01:09 5.8 °C 5.5 °C 1027 hPa Calm     98% 0.51 mm meteobridge W/m2
01:14 5.7 °C 5.4 °C 1027 hPa Calm   3.2 km/h 98% 0.51 mm meteobridge W/m2
01:19 5.8 °C 5.5 °C 1026.6 hPa Calm     98% 0.25 mm meteobridge W/m2
01:24 5.8 °C 5.5 °C 1026.6 hPa Calm     98% 0.25 mm meteobridge W/m2
01:29 5.8 °C 5.5 °C 1026.6 hPa Calm     98% 0.25 mm meteobridge W/m2
01:34 5.8 °C 5.5 °C 1026.6 hPa Calm   1.6 km/h 98% 0.25 mm meteobridge W/m2
01:39 5.8 °C 5.5 °C 1026.6 hPa Calm     98% 0 mm meteobridge W/m2
01:44 5.9 °C 5.6 °C 1027 hPa Calm     98% 0 mm meteobridge W/m2
01:49 5.9 °C 5.6 °C 1026.6 hPa Calm     98% 0 mm meteobridge W/m2
01:54 5.9 °C 5.6 °C 1026.6 hPa Calm     98% 0 mm meteobridge W/m2
01:59 5.9 °C 5.6 °C 1026.6 hPa Calm     98% 0 mm meteobridge W/m2
02:04 5.9 °C 5.6 °C 1026.6 hPa Calm     98% 0 mm meteobridge W/m2
02:09 5.9 °C 5.6 °C 1026.6 hPa Calm   3.2 km/h 98% 0 mm meteobridge W/m2
02:14 6 °C 5.7 °C 1026.6 hPa Calm     98% 0 mm meteobridge W/m2
02:19 5.9 °C 5.6 °C 1026.6 hPa Calm     98% 0 mm meteobridge W/m2
02:24 6 °C 5.7 °C 1026.6 hPa Calm   1.6 km/h 98% 0 mm meteobridge W/m2
02:29 6 °C 5.7 °C 1026.6 hPa Calm     98% 0 mm meteobridge W/m2
02:34 6 °C 5.7 °C 1026.6 hPa Calm     98% 0 mm meteobridge W/m2
02:39 6.1 °C 5.8 °C 1026.3 hPa Calm     98% 0 mm meteobridge W/m2
02:44 6 °C 5.7 °C 1026.3 hPa Calm     98% 0 mm meteobridge W/m2
02:49 6.1 °C 5.8 °C 1026.3 hPa Calm     98% 0.25 mm meteobridge W/m2
02:54 6.1 °C 5.8 °C 1026 hPa Calm     98% 0.25 mm meteobridge W/m2
02:59 6.1 °C 5.8 °C 1026 hPa Calm     98% 0.25 mm meteobridge W/m2
03:04 6.1 °C 5.8 °C 1026 hPa Calm     98% 0.25 mm meteobridge W/m2
03:09 6.1 °C 5.8 °C 1026 hPa Calm     98% 0.25 mm meteobridge W/m2
03:14 6.1 °C 5.8 °C 1026 hPa Calm     98% 0.25 mm meteobridge W/m2
03:19 6.1 °C 5.8 °C 1025.6 hPa Calm     98% 0.25 mm meteobridge W/m2
03:24 6.1 °C 5.8 °C 1025.6 hPa Calm     98% 0.25 mm meteobridge W/m2
03:29 6.1 °C 5.8 °C 1025.6 hPa Calm     98% 0.25 mm meteobridge W/m2
03:34 6.2 °C 5.9 °C 1025.6 hPa Calm     98% 0.25 mm meteobridge W/m2
03:39 6.1 °C 5.8 °C 1025.6 hPa Calm     98% 0.25 mm meteobridge W/m2
03:44 6.2 °C 5.9 °C 1025.6 hPa Calm     98% 0 mm meteobridge W/m2
03:49 6.2 °C 5.9 °C 1025.6 hPa SSE 1.4 km/h 1.6 km/h 98% 0 mm meteobridge W/m2
03:54 6.3 °C 6 °C 1025.6 hPa Calm   1.6 km/h 98% 0 mm meteobridge W/m2
03:59 6.3 °C 6 °C 1025.6 hPa Calm     98% 0.25 mm meteobridge W/m2
04:04 6.3 °C 6 °C 1025.6 hPa SSE 1.4 km/h 1.6 km/h 98% 0.25 mm meteobridge W/m2
04:09 6.3 °C 6 °C 1025.6 hPa Calm     98% 0.25 mm meteobridge W/m2
04:14 6.3 °C 6 °C 1025.6 hPa Calm     98% 0.25 mm meteobridge W/m2
04:19 6.3 °C 6 °C 1025.6 hPa Calm   3.2 km/h 98% 0.51 mm meteobridge W/m2
04:24 6.3 °C 6 °C 1025.6 hPa Calm     98% 0.51 mm meteobridge W/m2
04:29 6.4 °C 6.1 °C 1025.6 hPa Calm     98% 0.51 mm meteobridge W/m2
04:34 6.4 °C 6.1 °C 1025.6 hPa Calm     98% 0.51 mm meteobridge W/m2
04:39 6.4 °C 6.1 °C 1025.3 hPa Calm     98% 0.76 mm meteobridge W/m2
04:44 6.4 °C 6.1 °C 1025.3 hPa Calm   1.6 km/h 98% 0.76 mm meteobridge W/m2
04:49 6.4 °C 6.1 °C 1025.3 hPa Calm     98% 0.76 mm meteobridge W/m2
04:54 6.4 °C 6.1 °C 1025.3 hPa Calm     98% 0.76 mm meteobridge W/m2
04:59 6.4 °C 6.1 °C 1024.9 hPa Calm     98% 0.51 mm meteobridge W/m2
05:04 6.4 °C 6.1 °C 1024.9 hPa Calm     98% 0.51 mm meteobridge W/m2
05:09 6.4 °C 6.1 °C 1024.9 hPa Calm     98% 0.51 mm meteobridge W/m2
05:14 6.4 °C 6.1 °C 1024.9 hPa Calm     98% 0.51 mm meteobridge W/m2
05:19 6.4 °C 6.1 °C 1024.9 hPa Calm     98% 0.25 mm meteobridge W/m2
05:24 6.4 °C 6.1 °C 1024.9 hPa Calm     98% 0.25 mm meteobridge W/m2
05:29 6.5 °C 6.2 °C 1024.6 hPa Calm     98% 0.25 mm meteobridge W/m2
05:34 6.5 °C 6.2 °C 1024.6 hPa Calm     98% 0 mm meteobridge W/m2
05:39 6.4 °C 6.1 °C 1024.6 hPa Calm     98% 0 mm meteobridge W/m2
05:44 6.4 °C 6.1 °C 1024.6 hPa Calm     98% 0 mm meteobridge W/m2
05:49 6.4 °C 6.1 °C 1024.6 hPa Calm     98% 0 mm meteobridge W/m2
05:54 6.5 °C 6.2 °C 1024.6 hPa Calm     98% 0 mm meteobridge W/m2
05:59 6.5 °C 6.2 °C 1024.3 hPa Calm     98% 0 mm meteobridge W/m2
06:04 6.6 °C 6.3 °C 1024.3 hPa Calm     98% 0 mm meteobridge W/m2
06:09 6.5 °C 6.2 °C 1024.3 hPa Calm     98% 0 mm meteobridge W/m2
06:14 6.6 °C 6.3 °C 1024.3 hPa Calm     98% 0 mm meteobridge W/m2
06:19 6.6 °C 6.5 °C 1024.3 hPa Calm     99% 0 mm meteobridge W/m2
06:24 6.6 °C 6.3 °C 1023.9 hPa Calm     98% 0 mm meteobridge W/m2
06:29 6.6 °C 6.3 °C 1024.3 hPa Calm     98% 0 mm meteobridge W/m2
06:34 6.6 °C 6.3 °C 1023.9 hPa Calm     98% 0 mm meteobridge W/m2
06:39 6.6 °C 6.3 °C 1024.3 hPa Calm     98% 0 mm meteobridge W/m2
06:44 6.6 °C 6.3 °C 1024.3 hPa Calm     98% 0 mm meteobridge W/m2
06:49 6.7 °C 6.6 °C 1024.3 hPa Calm     99% 0 mm meteobridge W/m2
06:54 6.7 °C 6.6 °C 1023.9 hPa Calm     99% 0 mm meteobridge W/m2
06:59 6.7 °C 6.6 °C 1023.9 hPa Calm     99% 0 mm meteobridge W/m2
07:04 6.7 °C 6.6 °C 1023.9 hPa Calm     99% 0 mm meteobridge W/m2
07:09 6.7 °C 6.6 °C 1024.3 hPa Calm     99% 0 mm meteobridge W/m2
07:14 6.7 °C 6.6 °C 1024.3 hPa Calm     99% 0 mm meteobridge W/m2
07:19 6.8 °C 6.7 °C 1024.3 hPa Calm     99% 0 mm meteobridge W/m2
07:24 6.8 °C 6.7 °C 1023.9 hPa Calm     99% 0 mm meteobridge W/m2
07:29 6.8 °C 6.7 °C 1023.9 hPa Calm     99% 0 mm meteobridge W/m2
07:34 6.8 °C 6.7 °C 1023.9 hPa Calm     99% 0 mm meteobridge W/m2
07:39 6.8 °C 6.7 °C 1023.9 hPa Calm     99% 0 mm meteobridge W/m2
07:44 6.8 °C 6.7 °C 1023.9 hPa Calm     99% 0 mm meteobridge W/m2
07:49 6.8 °C 6.5 °C 1023.9 hPa Calm     98% 0.25 mm meteobridge W/m2
07:54 6.8 °C 6.5 °C 1023.9 hPa Calm     98% 0.25 mm meteobridge W/m2
07:59 6.8 °C 6.5 °C 1023.9 hPa Calm     98% 0.25 mm meteobridge W/m2
08:04 6.9 °C 6.8 °C 1023.9 hPa Calm     99% 0.25 mm meteobridge W/m2
08:09 6.9 °C 6.8 °C 1023.9 hPa Calm     99% 0.51 mm meteobridge W/m2
08:14 6.9 °C 6.8 °C 1023.9 hPa Calm     99% 0.51 mm meteobridge W/m2
08:19 6.9 °C 6.8 °C 1023.9 hPa Calm     99% 0.51 mm meteobridge W/m2
08:24 6.9 °C 6.8 °C 1023.9 hPa Calm     99% 0.51 mm meteobridge W/m2
08:29 7 °C 6.9 °C 1023.9 hPa Calm     99% 0.51 mm meteobridge W/m2
08:34 7 °C 6.9 °C 1023.9 hPa Calm     99% 0.51 mm meteobridge W/m2
08:39 7.1 °C 7 °C 1023.9 hPa Calm     99% 0.76 mm meteobridge W/m2
08:44 7.1 °C 7 °C 1023.9 hPa Calm     99% 0.76 mm meteobridge W/m2
08:49 7.2 °C 7.1 °C 1023.9 hPa Calm     99% 0.51 mm meteobridge W/m2
08:54 7.2 °C 7.1 °C 1024.3 hPa Calm     99% 0.76 mm meteobridge W/m2
08:59 7.3 °C 7.2 °C 1023.9 hPa Calm     99% 1.02 mm meteobridge W/m2
09:04 7.3 °C 7.2 °C 1023.9 hPa Calm     99% 1.02 mm meteobridge W/m2
09:09 7.3 °C 7.2 °C 1023.9 hPa Calm     99% 0.76 mm meteobridge W/m2
09:14 7.4 °C 7.3 °C 1023.9 hPa Calm     99% 0.76 mm meteobridge W/m2
09:19 7.4 °C 7.3 °C 1023.9 hPa Calm     99% 1.02 mm meteobridge W/m2
09:24 7.6 °C 7.5 °C 1023.9 hPa Calm     99% 1.02 mm meteobridge W/m2
09:29 7.6 °C 7.5 °C 1023.6 hPa Calm     99% 1.52 mm meteobridge W/m2
09:34 7.7 °C 7.6 °C 1023.6 hPa Calm     99% 1.52 mm meteobridge W/m2
09:39 7.8 °C 7.7 °C 1023.6 hPa Calm     99% 1.52 mm meteobridge W/m2
09:44 7.8 °C 7.7 °C 1023.6 hPa Calm     99% 1.78 mm meteobridge W/m2
09:49 7.9 °C 7.8 °C 1023.6 hPa Calm     99% 1.78 mm meteobridge W/m2
09:54 8 °C 7.9 °C 1023.6 hPa Calm     99% 1.52 mm meteobridge W/m2
09:59 8.1 °C 8 °C 1023.6 hPa Calm     99% 1.27 mm meteobridge W/m2
10:04 8.1 °C 8 °C 1023.6 hPa Calm     99% 1.52 mm meteobridge W/m2
10:09 8.2 °C 8.1 °C 1023.2 hPa Calm     99% 1.52 mm meteobridge W/m2
10:14 8.3 °C 8.2 °C 1023.2 hPa Calm     99% 1.52 mm meteobridge W/m2
10:19 8.3 °C 8.2 °C 1023.2 hPa Calm     99% 1.27 mm meteobridge W/m2
10:24 8.4 °C 8.3 °C 1023.2 hPa Calm     99% 1.27 mm meteobridge W/m2
10:29 8.5 °C 8.4 °C 1023.2 hPa Calm     99% 0.76 mm meteobridge W/m2
10:34 8.6 °C 8.5 °C 1022.9 hPa Calm     99% 0.76 mm meteobridge W/m2
10:39 8.7 °C 8.6 °C 1023.2 hPa Calm     99% 0.51 mm meteobridge W/m2
10:44 8.8 °C 8.7 °C 1022.9 hPa Calm     99% 0.51 mm meteobridge W/m2
10:49 8.8 °C 8.7 °C 1022.9 hPa Calm     99% 0.25 mm meteobridge W/m2
10:54 8.9 °C 8.8 °C 1022.9 hPa Calm     99% 0.25 mm meteobridge W/m2
10:59 9.1 °C 9 °C 1022.9 hPa Calm     99% 0.25 mm meteobridge W/m2
11:04 9.1 °C 9 °C 1022.6 hPa Calm     99% 0 mm meteobridge W/m2
11:09 9.1 °C 9 °C 1022.6 hPa Calm     99% 0 mm meteobridge W/m2
11:14 9.2 °C 9.1 °C 1022.6 hPa Calm     99% 0 mm meteobridge W/m2
11:19 9.3 °C 9.2 °C 1022.6 hPa Calm     99% 0 mm meteobridge W/m2
11:24 9.5 °C 9.4 °C 1022.6 hPa Calm     99% 0 mm meteobridge W/m2
11:29 9.7 °C 9.6 °C 1022.2 hPa Calm     99% 0 mm meteobridge W/m2
11:34 9.8 °C 9.7 °C 1022.2 hPa Calm     99% 0 mm meteobridge W/m2
11:39 9.9 °C 9.7 °C 1022.2 hPa Calm     99% 0 mm meteobridge W/m2
11:44 10 °C 9.8 °C 1022.2 hPa Calm     99% 0 mm meteobridge W/m2
11:48 10.2 °C 10 °C 1021.9 hPa Calm     99% 0 mm meteobridge W/m2
11:54 10.3 °C 10.1 °C 1021.9 hPa Calm     99% 0 mm meteobridge W/m2
11:59 10.4 °C 10.4 °C 1021.9 hPa Calm     100% 0 mm meteobridge W/m2
12:04 10.5 °C 10.3 °C 1021.9 hPa Calm     99% 0 mm meteobridge W/m2
12:09 10.6 °C 10.4 °C 1021.9 hPa Calm     99% 0 mm meteobridge W/m2
12:14 10.7 °C 10.7 °C 1021.6 hPa Calm     100% 0 mm meteobridge W/m2
12:19 10.8 °C 10.8 °C 1021.6 hPa Calm     100% 0 mm meteobridge W/m2
12:24 10.9 °C 10.7 °C 1021.6 hPa Calm     99% 0 mm meteobridge W/m2
12:29 11 °C 10.8 °C 1021.9 hPa Calm     99% 0 mm meteobridge W/m2
12:34 10.9 °C 10.7 °C 1021.6 hPa Calm     99% 0 mm meteobridge W/m2
12:39 10.9 °C 10.7 °C 1021.6 hPa Calm     99% 0 mm meteobridge W/m2
12:44 10.9 °C 10.7 °C 1021.6 hPa Calm     99% 0 mm meteobridge W/m2
12:49 10.9 °C 10.7 °C 1021.2 hPa Calm     99% 0 mm meteobridge W/m2
12:54 10.9 °C 10.7 °C 1021.6 hPa Calm     99% 0 mm meteobridge W/m2
12:59 10.8 °C 10.6 °C 1021.6 hPa Calm   1.6 km/h 99% 0 mm meteobridge W/m2
13:04 10.8 °C 10.6 °C 1021.2 hPa Calm     99% 0 mm meteobridge W/m2
13:09 10.8 °C 10.6 °C 1021.2 hPa Calm     99% 0 mm meteobridge W/m2
13:14 10.8 °C 10.6 °C 1021.2 hPa Calm     99% 0 mm meteobridge W/m2
13:19 10.8 °C 10.6 °C 1020.9 hPa Calm     99% 0 mm meteobridge W/m2
13:24 10.7 °C 10.5 °C 1020.9 hPa Calm     99% 0 mm meteobridge W/m2
13:29 10.7 °C 10.5 °C 1020.9 hPa Calm     99% 0 mm meteobridge W/m2
13:34 10.7 °C 10.5 °C 1020.9 hPa Calm     99% 0 mm meteobridge W/m2
13:39 10.7 °C 10.5 °C 1020.9 hPa Calm     99% 0 mm meteobridge W/m2
13:44 10.7 °C 10.5 °C 1020.5 hPa Calm     99% 0 mm meteobridge W/m2
13:49 10.8 °C 10.6 °C 1020.5 hPa Calm     99% 0 mm meteobridge W/m2
13:54 10.8 °C 10.6 °C 1020.5 hPa Calm     99% 0 mm meteobridge W/m2
13:59 10.9 °C 10.7 °C 1020.5 hPa Calm     99% 0 mm meteobridge W/m2
14:04 10.9 °C 10.7 °C 1020.2 hPa Calm     99% 0 mm meteobridge W/m2
14:09 11 °C 10.8 °C 1019.9 hPa Calm     99% 0 mm meteobridge W/m2
14:14 11.1 °C 10.9 °C 1019.9 hPa Calm     99% 0 mm meteobridge W/m2
14:19 11.2 °C 11 °C 1019.5 hPa Calm     99% 0 mm meteobridge W/m2
14:24 11.3 °C 11.1 °C 1019.5 hPa Calm     99% 0 mm meteobridge W/m2
14:29 11.3 °C 11.1 °C 1019.5 hPa Calm     99% 0 mm meteobridge W/m2
14:34 11.4 °C 11.2 °C 1019.5 hPa Calm     99% 0 mm meteobridge W/m2
14:39 11.6 °C 11.4 °C 1019.2 hPa Calm     99% 0 mm meteobridge W/m2
14:44 11.7 °C 11.5 °C 1019.2 hPa Calm     99% 0 mm meteobridge W/m2
14:49 11.8 °C 11.6 °C 1019.2 hPa Calm     99% 0 mm meteobridge W/m2
14:54 11.8 °C 11.6 °C 1018.8 hPa Calm     99% 0 mm meteobridge W/m2
14:59 12 °C 11.8 °C 1018.8 hPa Calm     99% 0 mm meteobridge W/m2
15:04 12.1 °C 11.9 °C 1018.8 hPa Calm     99% 0 mm meteobridge W/m2
15:09 12.2 °C 12 °C 1018.8 hPa Calm     99% 0 mm meteobridge W/m2
15:14 12.3 °C 12.1 °C 1018.8 hPa SSE 1.4 km/h 3.2 km/h 99% 0 mm meteobridge W/m2
15:19 12.3 °C 12 °C 1018.8 hPa Calm     98% 0 mm meteobridge W/m2
15:24 12.3 °C 12 °C 1018.8 hPa Calm     98% 0 mm meteobridge W/m2
15:29 12.4 °C 12.1 °C 1018.8 hPa Calm     98% 0 mm meteobridge W/m2
15:34 12.4 °C 12.1 °C 1018.8 hPa Calm     98% 0 mm meteobridge W/m2
15:39 12.6 °C 12.3 °C 1018.8 hPa Calm     98% 0 mm meteobridge W/m2
15:44 12.7 °C 12.4 °C 1018.8 hPa Calm     98% 0 mm meteobridge W/m2
15:49 12.7 °C 12.4 °C 1018.8 hPa Calm     98% 0 mm meteobridge W/m2
15:54 12.7 °C 12.4 °C 1018.8 hPa Calm     98% 0 mm meteobridge W/m2
15:59 12.8 °C 12.5 °C 1018.8 hPa Calm     98% 0 mm meteobridge W/m2
16:04 12.7 °C 12.2 °C 1018.8 hPa Calm     97% 0 mm meteobridge W/m2
16:09 12.7 °C 12.2 °C 1018.8 hPa Calm   1.6 km/h 97% 0 mm meteobridge W/m2
16:14 12.7 °C 12.2 °C 1018.8 hPa Calm     97% 0 mm meteobridge W/m2
16:19 12.6 °C 12.1 °C 1018.5 hPa Calm     97% 0 mm meteobridge W/m2
16:24 12.5 °C 12 °C 1018.8 hPa Calm     97% 0 mm meteobridge W/m2
16:29 12.4 °C 11.9 °C 1018.8 hPa Calm     97% 0 mm meteobridge W/m2
16:34 12.4 °C 11.9 °C 1018.8 hPa Calm     97% 0 mm meteobridge W/m2
16:39 12.4 °C 11.9 °C 1018.8 hPa Calm     97% 0 mm meteobridge W/m2
16:44 12.4 °C 11.9 °C 1018.8 hPa Calm     97% 0 mm meteobridge W/m2
16:49 12.4 °C 11.9 °C 1018.8 hPa Calm     97% 0 mm meteobridge W/m2
16:54 12.3 °C 11.8 °C 1019.2 hPa Calm     97% 0 mm meteobridge W/m2
16:59 12.4 °C 11.9 °C 1018.8 hPa Calm     97% 0 mm meteobridge W/m2
17:04 12.3 °C 11.8 °C 1018.8 hPa Calm     97% 0 mm meteobridge W/m2
17:09 12.3 °C 11.8 °C 1018.8 hPa Calm     97% 0 mm meteobridge W/m2
17:14 12.3 °C 11.8 °C 1018.8 hPa Calm     97% 0 mm meteobridge W/m2
17:19 12.3 °C 11.8 °C 1018.8 hPa Calm     97% 0 mm meteobridge W/m2
17:24 12.2 °C 11.7 °C 1019.2 hPa Calm     97% 0 mm meteobridge W/m2
17:29 12.2 °C 11.7 °C 1018.8 hPa Calm     97% 0 mm meteobridge W/m2
17:34 12.2 °C 11.7 °C 1018.8 hPa Calm     97% 0 mm meteobridge W/m2
17:39 12.2 °C 11.7 °C 1018.8 hPa Calm     97% 0 mm meteobridge W/m2
17:44 12.2 °C 11.9 °C 1018.8 hPa Calm     98% 0 mm meteobridge W/m2
17:49 12.1 °C 11.8 °C 1018.8 hPa Calm     98% 0 mm meteobridge W/m2
17:54 12.1 °C 11.8 °C 1018.8 hPa Calm     98% 0 mm meteobridge W/m2
17:59 12.1 °C 11.8 °C 1018.8 hPa Calm     98% 0 mm meteobridge W/m2
18:04 12.1 °C 11.8 °C 1018.8 hPa Calm     98% 0 mm meteobridge W/m2
18:09 12.1 °C 11.8 °C 1018.5 hPa Calm     98% 0 mm meteobridge W/m2
18:14 12 °C 11.7 °C 1018.8 hPa Calm     98% 0 mm meteobridge W/m2
18:19 12.1 °C 11.8 °C 1018.5 hPa Calm     98% 0 mm meteobridge W/m2
18:24 12 °C 11.7 °C 1018.8 hPa Calm     98% 0 mm meteobridge W/m2
18:29 11.9 °C 11.6 °C 1018.8 hPa Calm     98% 0 mm meteobridge W/m2
18:34 11.9 °C 11.6 °C 1018.8 hPa Calm     98% 0 mm meteobridge W/m2
18:39 11.9 °C 11.6 °C 1018.8 hPa Calm     98% 0 mm meteobridge W/m2
18:44 11.8 °C 11.5 °C 1018.8 hPa Calm     98% 0 mm meteobridge W/m2
18:49 11.9 °C 11.6 °C 1018.8 hPa Calm     98% 0 mm meteobridge W/m2
18:54 11.8 °C 11.5 °C 1018.8 hPa Calm     98% 0 mm meteobridge W/m2
18:59 11.8 °C 11.5 °C 1018.8 hPa Calm     98% 0.25 mm meteobridge W/m2
19:04 11.8 °C 11.5 °C 1018.8 hPa Calm     98% 0.25 mm meteobridge W/m2
19:09 11.8 °C 11.6 °C 1018.8 hPa Calm     99% 0.25 mm meteobridge W/m2
19:14 11.8 °C 11.6 °C 1018.8 hPa Calm     99% 0.51 mm meteobridge W/m2
19:19 11.8 °C 11.6 °C 1018.8 hPa Calm     99% 0.51 mm meteobridge W/m2
19:24 11.8 °C 11.6 °C 1018.8 hPa Calm     99% 0.51 mm meteobridge W/m2
19:29 11.8 °C 11.6 °C 1018.5 hPa Calm     99% 0.51 mm meteobridge W/m2
19:34 11.8 °C 11.6 °C 1018.5 hPa Calm     99% 0.76 mm meteobridge W/m2
19:39 11.8 °C 11.6 °C 1018.5 hPa Calm     99% 1.02 mm meteobridge W/m2
19:44 11.8 °C 11.6 °C 1018.8 hPa Calm     99% 1.52 mm meteobridge W/m2
19:49 11.8 °C 11.6 °C 1018.8 hPa Calm     99% 1.78 mm meteobridge W/m2
19:53 11.8 °C 11.6 °C 1018.8 hPa Calm     99% 1.78 mm meteobridge W/m2
19:59 11.9 °C 11.7 °C 1018.8 hPa Calm     99% 2.54 mm meteobridge W/m2
20:04 11.9 °C 11.7 °C 1018.8 hPa Calm     99% 3.05 mm meteobridge W/m2
20:09 11.9 °C 11.7 °C 1018.5 hPa Calm     99% 3.56 mm meteobridge W/m2
20:14 11.9 °C 11.7 °C 1018.5 hPa Calm     99% 3.81 mm meteobridge W/m2
20:19 11.9 °C 11.7 °C 1018.8 hPa Calm     99% 3.81 mm meteobridge W/m2
20:24 11.8 °C 11.6 °C 1018.5 hPa Calm     99% 4.57 mm meteobridge W/m2
20:29 11.9 °C 11.7 °C 1018.5 hPa Calm     99% 4.83 mm meteobridge W/m2
20:34 11.9 °C 11.7 °C 1018.5 hPa Calm     99% 4.83 mm meteobridge W/m2
20:39 11.9 °C 11.7 °C 1018.5 hPa Calm     99% 4.83 mm meteobridge W/m2
20:44 11.9 °C 11.7 °C 1018.5 hPa Calm     99% 4.32 mm meteobridge W/m2
20:49 12.1 °C 11.9 °C 1018.5 hPa Calm     99% 4.32 mm meteobridge W/m2
20:54 12 °C 11.8 °C 1018.5 hPa Calm     99% 4.06 mm meteobridge W/m2
20:59 12.1 °C 11.9 °C 1018.5 hPa Calm     99% 3.56 mm meteobridge W/m2
21:04 12.1 °C 11.9 °C 1018.2 hPa Calm     99% 3.05 mm meteobridge W/m2
21:09 12.2 °C 12 °C 1018.5 hPa Calm     99% 2.54 mm meteobridge W/m2
21:14 12.2 °C 12 °C 1018.5 hPa SSE 1.4 km/h 1.6 km/h 99% 2.29 mm meteobridge W/m2
21:19 12.2 °C 12 °C 1018.5 hPa Calm     99% 2.29 mm meteobridge W/m2
21:24 12.1 °C 11.9 °C 1018.5 hPa Calm     99% 1.78 mm meteobridge W/m2
21:29 12.1 °C 11.9 °C 1018.5 hPa Calm     99% 1.52 mm meteobridge W/m2
21:34 12.2 °C 12 °C 1018.5 hPa Calm   1.6 km/h 99% 1.27 mm meteobridge W/m2
21:39 12.3 °C 12.1 °C 1018.5 hPa Calm     99% 1.27 mm meteobridge W/m2
21:44 12.2 °C 12 °C 1018.2 hPa Calm     99% 1.02 mm meteobridge W/m2
21:49 12.1 °C 11.9 °C 1018.2 hPa Calm     99% 1.27 mm meteobridge W/m2
21:54 11.9 °C 11.7 °C 1018.2 hPa Calm     99% 1.27 mm meteobridge W/m2
21:59 11.8 °C 11.6 °C 1018.2 hPa Calm     99% 1.02 mm meteobridge W/m2
22:04 11.8 °C 11.6 °C 1018.2 hPa Calm     99% 1.02 mm meteobridge W/m2
22:09 11.7 °C 11.5 °C 1017.8 hPa Calm     99% 1.27 mm meteobridge W/m2
22:14 11.6 °C 11.4 °C 1018.2 hPa Calm     99% 1.02 mm meteobridge W/m2
22:19 11.6 °C 11.4 °C 1017.8 hPa Calm     99% 1.27 mm meteobridge W/m2
22:24 11.4 °C 11.2 °C 1017.8 hPa Calm     99% 1.27 mm meteobridge W/m2
22:29 11.4 °C 11.2 °C 1017.8 hPa Calm     99% 1.02 mm meteobridge W/m2
22:34 11.4 °C 11.2 °C 1017.8 hPa Calm     99% 1.02 mm meteobridge W/m2
22:39 11.3 °C 11.1 °C 1017.8 hPa Calm     99% 0.76 mm meteobridge W/m2
22:44 11.3 °C 11.1 °C 1017.8 hPa Calm     99% 0.76 mm meteobridge W/m2
22:49 11.2 °C 11 °C 1017.8 hPa Calm     99% 0.51 mm meteobridge W/m2
22:54 11.2 °C 11 °C 1017.8 hPa Calm     99% 0.51 mm meteobridge W/m2
22:59 11.3 °C 11.1 °C 1017.8 hPa Calm   3.2 km/h 99% 0.51 mm meteobridge W/m2
23:04 11.4 °C 11.2 °C 1017.8 hPa Calm   3.2 km/h 99% 0.51 mm meteobridge W/m2
23:09 12.4 °C 12.4 °C 1017.5 hPa Calm   11.3 km/h 100% 0.51 mm meteobridge W/m2
23:14 12.9 °C 12.9 °C 1017.5 hPa Calm   3.2 km/h 100% 0.25 mm meteobridge W/m2
23:19 13.1 °C 13.1 °C 1017.5 hPa Calm   3.2 km/h 100% 0 mm meteobridge W/m2
23:24 13.2 °C 13.2 °C 1017.2 hPa Calm     100% 0 mm meteobridge W/m2
23:29 13.2 °C 13.2 °C 1017.2 hPa Calm     100% 0 mm meteobridge W/m2
23:34 13.3 °C 13.3 °C 1017.2 hPa Calm   1.6 km/h 100% 0 mm meteobridge W/m2
23:39 13.3 °C 13.3 °C 1017.2 hPa Calm   1.6 km/h 100% 0 mm meteobridge W/m2
23:44 13.3 °C 13.3 °C 1017.2 hPa Calm     100% 0 mm meteobridge W/m2
23:49 13.3 °C 13.3 °C 1017.2 hPa Calm     100% 0 mm meteobridge W/m2
23:54 13.3 °C 13.3 °C 1017.2 hPa Calm     100% 0 mm meteobridge W/m2
23:59 13.3 °C 13.1 °C 1017.2 hPa Calm     99% 0 mm meteobridge W/m2
EllijayWeather
Compliments of Weather Underground - 2.5 mb